CW9927 Weather Reports


time (UTC)temp
C
wind
direction
speed
KPH
gust
KPH
rain 1hr
cm
rain 24hr
cm
rain mn
cm
humidity
%
barometer
mb
20260509205117 25 0.0 0.0 0.00 0.00 0.00 53 1014.4
20260509204138 25 0.0 0.0 0.00 0.00 0.00 53 1014.5
20260509203117 24 0.0 0.0 0.00 0.00 0.00 54 1014.6
20260509202117 23 0.0 0.0 0.00 0.00 0.00 54 1014.8
20260509201117 23 0.0 0.0 0.00 0.00 0.00 55 1014.9
20260509200117 23 0.0 0.0 0.00 0.00 0.00 56 1015.0
20260509195118 23 0.0 0.0 0.00 0.00 0.00 57 1015.1
20260509194117 22 0.0 0.0 0.00 0.00 0.00 59 1015.2
20260509193117 22 0.0 0.0 0.00 0.00 0.00 59 1015.2
20260509192117 21 0.0 0.0 0.00 0.00 0.00 59 1015.5
20260509191118 21 0.0 0.0 0.00 0.00 0.00 62 1015.5
20260509185117 19 0.0 0.0 0.00 0.00 0.00 67 1015.8
20260509184117 18 0.0 0.0 0.00 0.00 0.00 66 1015.9
20260509183137 18 0.0 0.0 0.00 0.00 0.00 70 1016.0
20260509182116 17 0.0 0.0 0.00 0.00 0.00 73 1016.1
20260509181116 17 0.0 0.0 0.00 0.00 0.00 76 1016.2
20260509180116 16 0.0 0.0 0.00 0.00 0.00 79 1016.4
20260509175137 15 0.0 0.0 0.00 0.00 0.00 82 1016.5
20260509174118 15 0.0 0.0 0.00 0.00 0.00 85 1016.5
20260509173116 13 0.0 0.0 0.00 0.00 0.00 88 1016.5
20260509172116 13 0.0 0.0 0.00 0.00 0.00 90 1016.6
20260509171116 12 0.0 0.0 0.00 0.00 0.00 92 1016.7
20260509170116 12 0.0 0.0 0.00 0.00 0.00 92 1016.7
20260509165117 11 0.0 0.0 0.00 0.00 0.00 92 1016.9
20260509164117 11 0.0 0.0 0.00 0.00 0.00 93 1016.9
20260509163117 11 0.0 0.0 0.00 0.00 0.00 93 1017.0
20260509162117 10 0.0 0.0 0.00 0.00 0.00 92 1017.0
20260509161118 10 0.0 0.0 0.00 0.00 0.00 92 1017.1
20260509160118 10 0.0 0.0 0.00 0.00 0.00 92 1017.1
20260509155117 10 0.0 0.0 0.00 0.00 0.00 92 1017.1
20260509154117 10 0.0 0.0 0.00 0.00 0.00 92 1017.2
20260509153117 10 0.0 0.0 0.00 0.00 0.00 93 1017.1
20260509152117 10 0.0 0.0 0.00 0.00 0.00 92 1017.2
20260509151137 9 0.0 0.0 0.00 0.00 0.00 92 1017.2
20260509150138 9 0.0 0.0 0.00 0.00 0.00 92 1017.3
20260509145137 8 0.0 0.0 0.00 0.00 0.00 92 1017.2
20260509144138 8 0.0 0.0 0.00 0.00 0.00 92 1017.1
20260509143117 8 0.0 0.0 0.00 0.00 0.00 92 1017.2
20260509142117 7 0.0 0.0 0.00 0.00 0.00 92 1017.1
20260509141117 7 0.0 0.0 0.00 0.00 0.00 91 1017.1
20260509140117 7 0.0 0.0 0.00 0.00 0.00 91 1017.0
20260509135117 7 0.0 0.0 0.00 0.00 0.00 90 1016.9
20260509134117 6 0.0 0.0 0.00 0.00 0.00 90 1016.8
20260509133117 6 0.0 0.0 0.00 0.00 0.00 90 1016.6
20260509132137 6 0.0 0.0 0.00 0.00 0.00 89 1016.6
20260509131117 6 0.0 0.0 0.00 0.00 0.00 89 1016.4
20260509125136 6 0.0 0.0 0.00 0.00 0.00 89 1016.3
20260509124116 7 0.0 0.0 0.00 0.00 0.00 89 1016.3
20260509123116 7 0.0 0.0 0.00 0.00 0.00 89 1016.4
20260509122136 7 0.0 0.0 0.00 0.00 0.00 89 1016.3
20260509121116 7 0.0 0.0 0.00 0.00 0.00 89 1016.3
20260509120116 7 0.0 0.0 0.00 0.00 0.00 88 1016.3
20260509115116 7 0.0 0.0 0.00 0.00 0.00 89 1016.3
20260509114116 7 0.0 0.0 0.00 0.00 0.00 88 1016.3
20260509113117 7 0.0 0.0 0.00 0.00 0.00 88 1016.4
20260509112116 7 0.0 0.0 0.00 0.00 0.00 88 1016.5
20260509111116 8 0.0 0.0 0.00 0.00 0.00 88 1016.5
20260509110136 8 0.0 0.0 0.00 0.00 0.00 88 1016.5
20260509105137 8 0.0 0.0 0.00 0.00 0.00 88 1016.6
20260509104117 8 0.0 0.0 0.00 0.00 0.00 88 1016.6
20260509103137 8 0.0 0.0 0.00 0.00 0.00 88 1016.7
20260509102117 8 0.0 0.0 0.00 0.00 0.00 88 1016.7
20260509101117 8 0.0 0.0 0.00 0.00 0.00 87 1016.8
20260509100118 8 0.0 0.0 0.00 0.00 0.00 87 1016.8
20260509095138 8 0.0 0.0 0.00 0.00 0.00 87 1016.8
20260509094117 8 0.0 0.0 0.00 0.00 0.00 87 1016.9
20260509093138 8 0.0 0.0 0.00 0.00 0.00 87 1017.0
20260509092117 9 0.0 0.0 0.00 0.00 0.00 87 1017.0
20260509091137 9 0.0 0.0 0.00 0.00 0.00 87 1017.1
20260509090117 9 0.0 0.0 0.00 0.00 0.00 87 1017.1
20260509085117 9 0.0 0.0 0.00 0.00 0.00 87 1017.1
20260509084117 9 0.0 0.0 0.00 0.00 0.00 86 1017.2
20260509083117 9 0.0 0.0 0.00 0.00 0.00 86 1017.3
20260509082117 10 0.0 0.0 0.00 0.00 0.00 86 1017.4
20260509081117 10 0.0 0.0 0.00 0.00 0.00 86 1017.3
20260509080117 10 0.0 0.0 0.00 0.00 0.00 86 1017.3
20260509075117 10 0.0 0.0 0.00 0.00 0.00 86 1017.4
20260509074117 10 0.0 0.0 0.00 0.00 0.00 85 1017.4
20260509073137 10 0.0 0.0 0.00 0.00 0.00 85 1017.3
20260509072138 10 0.0 0.0 0.00 0.00 0.00 85 1017.3
20260509071117 11 0.0 0.0 0.00 0.00 0.00 85 1017.3
20260509064138 11 0.0 0.0 0.00 0.00 0.00 84 1017.4
20260509063115 11 0.0 0.0 0.00 0.00 0.00 84 1017.4
20260509062117 11 0.0 0.0 0.00 0.00 0.00 84 1017.4
20260509061116 11 0.0 0.0 0.00 0.00 0.00 83 1017.5
20260509060138 11 0.0 0.0 0.00 0.00 0.00 83 1017.6
20260509055117 12 0.0 0.0 0.00 0.00 0.00 82 1017.5
20260509054118 12 0.0 0.0 0.00 0.00 0.00 82 1017.5
20260509053117 12 0.0 0.0 0.00 0.00 0.00 82 1017.5
20260509052117 12 0.0 0.0 0.00 0.00 0.00 82 1017.5
20260509051118 12 0.0 0.0 0.00 0.00 0.00 81 1017.5
20260509050136 12 0.0 0.0 0.00 0.00 0.00 80 1017.3
20260509045119 13 0.0 0.0 0.00 0.00 0.00 80 1017.2
20260509044117 13 0.0 0.0 0.00 0.00 0.00 79 1017.2
20260509043118 13 0.0 0.0 0.00 0.00 0.00 79 1016.9
20260509042118 13 0.0 0.0 0.00 0.00 0.00 79 1016.7
20260509041117 13 0.0 0.0 0.00 0.00 0.00 78 1016.6
20260509040138 14 0.0 0.0 0.00 0.00 0.00 78 1016.5
20260509035117 14 0.0 0.0 0.00 0.00 0.00 77 1016.5
20260509034118 14 0.0 0.0 0.00 0.00 0.00 77 1016.4
20260509033117 14 0.0 0.0 0.00 0.00 0.00 77 1016.3
20260509032117 15 0.0 0.0 0.00 0.00 0.00 76 1016.2
20260509031138 15 0.0 0.0 0.00 0.00 0.00 75 1016.0
20260509030117 15 0.0 0.0 0.00 0.00 0.00 73 1015.8
20260509025117 16 0.0 0.0 0.00 0.00 0.00 72 1015.7
20260509024118 17 0.0 0.0 0.00 0.00 0.00 70 1015.8
20260509023117 17 0.0 1.6 0.00 0.00 0.00 68 1015.6
20260509022117 18 0.0 0.0 0.00 0.00 0.00 66 1015.5
20260509021117 19 0.0 0.0 0.00 0.00 0.00 64 1015.4
20260509020117 20 0.0 0.0 0.00 0.00 0.00 62 1015.3
20260509015117 20 0.0 0.0 0.00 0.00 0.00 61 1015.4
20260509014117 21 0.0 0.0 0.00 0.00 0.00 59 1015.4
20260509013158 22 0.0 0.0 0.00 0.00 0.00 58 1015.3
20260509012118 22 0.0 0.0 0.00 0.00 0.00 58 1015.4
20260509011118 22 0.0 0.0 0.00 0.00 0.00 57 1015.4
20260509005117 23 0.0 0.0 0.00 0.00 0.00 55 1015.5
20260509004116 24 0.0 0.0 0.00 0.00 0.00 54 1015.5
20260509003116 24 0.0 0.0 0.00 0.00 0.00 54 1015.6
20260509002116 24 0.0 0.0 0.00 0.00 0.00 54 1015.6
20260509001117 24 0.0 0.0 0.00 0.00 0.00 55 1015.6
20260509000117 24 0.0 0.0 0.00 0.00 0.00 54 1015.6
20260508235116 24 0.0 0.0 0.00 0.00 0.00 53 1015.7
20260508234117 25 0.0 0.0 0.00 0.00 0.00 53 1015.7
20260508233137 25 0.0 0.0 0.00 0.00 0.00 52 1015.7
20260508232116 25 0.0 0.0 0.00 0.00 0.00 51 1015.8
20260508231116 25 0.0 0.0 0.00 0.00 0.00 51 1015.8
20260508230141 25 0.0 0.0 0.00 0.00 0.00 50 1016.0
20260508225116 25 0.0 0.0 0.00 0.00 0.00 50 1016.1
20260508224137 25 0.0 0.0 0.00 0.00 0.00 52 1016.3
20260508223116 25 0.0 0.0 0.00 0.00 0.00 52 1016.3
20260508222116 25 0.0 0.0 0.00 0.00 0.00 52 1016.4
20260508221137 25 0.0 0.0 0.00 0.00 0.00 52 1016.6
20260508220116 25 0.0 0.0 0.00 0.00 0.00 51 1016.7
20260508215137 25 0.0 0.0 0.00 0.00 0.00 52 1016.8
20260508214116 25 0.0 0.0 0.00 0.00 0.00 52 1016.9
20260508213117 25 0.0 0.0 0.00 0.00 0.00 51 1016.9
20260508212116 25 0.0 0.0 0.00 0.00 0.00 51 1017.2
20260508211116 25 0.0 0.0 0.00 0.00 0.00 52 1017.2
20260508210116 24 0.0 0.0 0.00 0.00 0.00 53 1017.3